Hourly Data Report for June 27, 2012

All times are specified in Local Standard Time (LST). Add 1 hour to adjust for Daylight Saving Time where and when it is observed.

PENTICTON A
BRITISH COLUMBIA

49°27'45.000" N
119°36'08.000" W
344.40 m
1126146
71889
YYF

Download Data

Hourly Data (June 2012)
Hourly Data Report for June 27, 2012
Temp Definition
°C
Dew Point Temp Definition
°C
Rel Hum Definition
%
Wind Dir Definition
10's deg

Wind Spd Definition
km/h
Visibility Definition
km
Stn Press Definition
kPa
Hmdx Definition


Wind Chill Definition


Weather Definition


TIME
00:00 Legend Double Dagger 12.8 8.1 73 13 7 10.0 97.26     LegendNANA
01:00 Legend Double Dagger 12.4 7.5 72 2 4 10.0 97.31     Mostly Cloudy
02:00 Legend Double Dagger 12.6 8.9 78 19 7 10.0 97.38     LegendNANA
03:00 Legend Double Dagger 12.5 9.2 80 15 5 10.0 97.42     LegendNANA
04:00 Legend Double Dagger 12.1 8.4 78   0 10.0 97.48     Mainly Clear
05:00 Legend Double Dagger 8.2 6.7 90 2 5 10.0 97.53     LegendNANA
06:00 Legend Double Dagger 11.3 9.1 86   0 10.0 97.57     LegendNANA
07:00 Legend Double Dagger 14.2 9.1 71 19 8 10.0 97.58     Mainly Clear
08:00 Legend Double Dagger 15.4 7.5 59   0 10.0 97.56     LegendNANA
09:00 Legend Double Dagger 16.9 6.8 51 18 8 10.0 97.53     LegendNANA
10:00 Legend Double Dagger 18.9 6.8 45 15 14 10.0 97.51     Mainly Clear
11:00 Legend Double Dagger 20.2 8.0 45 16 19 10.0 97.47     LegendNANA
12:00 Legend Double Dagger 21.2 7.2 40 17 25 10.0 97.41     LegendNANA
13:00 Legend Double Dagger 22.2 8.5 41 17 26 10.0 97.38     Mostly Cloudy
14:00 Legend Double Dagger 22.6 9.2 42 17 24 10.0 97.33     LegendNANA
15:00 Legend Double Dagger 22.7 8.2 39 18 28 10.0 97.29     LegendNANA
16:00 Legend Double Dagger 21.5 7.1 39 18 26 10.0 97.27     Mainly Clear
17:00 Legend Double Dagger 22.4 7.2 37 17 30 10.0 97.25     LegendNANA
18:00 Legend Double Dagger 21.4 7.0 39 18 31 10.0 97.22     LegendNANA
19:00 Legend Double Dagger 20.9 8.0 43 18 27 10.0 97.20     Mostly Cloudy
20:00 Legend Double Dagger 20.9 6.2 38 20 23 10.0 97.23     LegendNANA
21:00 Legend Double Dagger 20.3 5.7 38 20 20 10.0 97.29     LegendNANA
22:00 Legend Double Dagger 19.8 6.0 40 20 23 10.0 97.31     Mostly Cloudy
23:00 Legend Double Dagger 18.7 6.7 45 19 26 10.0 97.34     LegendNANA

Notes on Data Quality.

Legend

  • E = Estimated
  • M = Missing
  • NA = Not Available
  • ‡ = Partner data that is not subject to review by the National Climate Archives
Date modified: